Tracking 28794 objects as of 19-Apr-2024
HD Live streaming from Space Station
objects crossing your sky now

COSMOS 397 DEB

Track COSMOS 397 DEB now!
10-day predictions


NORAD ID: 5012
Int'l Code: 1971-015F
Perigee: 510.9 km
Apogee: 1,177.0 km
Inclination: 65.7 °
Period: 101.6 minutes
Semi major axis: 7214 km
RCS: 0.0311 m2 (small)
Launch date: February 25, 1971
Source: Commonwealth of Independent States (former USSR) (CIS)
Launch site: TYURATAM MISSILE AND SPACE COMPLEX (TTMTR)

Note: This is SATELLITE DEBRIS
Your satellite tracking list
Your tracking list is empty




NASA's NSSDC Master Catalog

Two Line Element Set (TLE):
1 05012U 71015F   24110.60362821  .00014820  00000-0  25761-2 0  9996
2 05012  65.7458 334.7875 0461605 255.9373  99.0003 14.16627560587513
Source of the keplerian elements: AFSPC